• In Hungary
  • List of Countries
  • For 7 days
  • Water Temperature
  • Satellite Maps
  • Weather Map
  • News
  • Weather Widgets
  • user-avatar
    Login

    Hourly Weather Chubivka

    Today, 18 August, Saturday

    Time Temperature Precipitation Wind Pressure Humidity
    00:00 +24°C° 0 mm 3 mps 741 mmHg 58%
    01:00 +24°C° 0 mm 3 mps 741 mmHg 58%
    02:00 +22°C° 0 mm 3 mps 741 mmHg 62%
    03:00 +21°C° 0 mm 2 mps 741 mmHg 62%
    04:00 +21°C° 0 mm 2 mps 741 mmHg 63%
    05:00 +21°C° 0 mm 2 mps 741 mmHg 64%
    06:00 +22°C° 0 mm 3 mps 741 mmHg 60%
    07:00 +25°C° 0 mm 3 mps 741 mmHg 56%
    08:00 +26°C° 0 mm 3 mps 742 mmHg 52%
    09:00 +28°C° 0 mm 3 mps 742 mmHg 48%
    10:00 +29°C° 0 mm 3 mps 742 mmHg 44%
    11:00 +30°C° 0 mm 3 mps 742 mmHg 40%
    12:00 +31°C° 0 mm 2 mps 742 mmHg 38%
    13:00 +32°C° 0 mm 2 mps 742 mmHg 35%
    14:00 +34°C° 0 mm 2 mps 742 mmHg 32%
    15:00 +34°C° 0 mm 2 mps 742 mmHg 32%
    16:00 +34°C° 0 mm 2 mps 742 mmHg 32%
    17:00 +32°C° 0 mm 2 mps 742 mmHg 32%
    18:00 +31°C° 0 mm 2 mps 742 mmHg 35%
    19:00 +29°C° 0 mm 2 mps 742 mmHg 39%
    20:00 +28°C° 0 mm 2 mps 742 mmHg 42%
    21:00 +27°C° 0.2 mm 2 mps 742 mmHg 46%
    22:00 +26°C° 0.2 mm 2 mps 742 mmHg 50%
    23:00 +25°C° 0.2 mm 3 mps 742 mmHg 55%

    Tomorrow, 19 August, Sunday

    Time Temperature Precipitation Wind Pressure Humidity
    00:00 +24°C° 0.3 mm 2 mps 742 mmHg 58%
    01:00 +23°C° 0.3 mm 1 mps 743 mmHg 62%
    02:00 +23°C° 0.3 mm 1 mps 743 mmHg 65%
    03:00 +22°C° 0 mm 1 mps 743 mmHg 66%
    04:00 +22°C° 0 mm 1 mps 743 mmHg 67%
    05:00 +21°C° 0 mm 1 mps 743 mmHg 68%
    06:00 +23°C° 0 mm 2 mps 743 mmHg 63%
    07:00 +25°C° 0 mm 2 mps 743 mmHg 57%
    08:00 +26°C° 0 mm 2 mps 743 mmHg 51%
    09:00 +28°C° 0 mm 2 mps 743 mmHg 46%
    10:00 +30°C° 0 mm 2 mps 744 mmHg 41%
    11:00 +32°C° 0 mm 2 mps 744 mmHg 36%
    12:00 +32°C° 0 mm 2 mps 743 mmHg 34%
    13:00 +34°C° 0 mm 2 mps 743 mmHg 32%
    14:00 +34°C° 0 mm 2 mps 743 mmHg 30%
    15:00 +34°C° 0 mm 2 mps 743 mmHg 32%
    16:00 +32°C° 0 mm 2 mps 742 mmHg 33%
    17:00 +32°C° 0 mm 1 mps 742 mmHg 35%
    18:00 +30°C° 0 mm 2 mps 742 mmHg 38%
    19:00 +29°C° 0 mm 2 mps 742 mmHg 40%
    20:00 +27°C° 0 mm 2 mps 742 mmHg 43%
    21:00 +26°C° 0.2 mm 2 mps 742 mmHg 45%
    22:00 +25°C° 0.2 mm 2 mps 742 mmHg 47%
    23:00 +24°C° 0.2 mm 2 mps 742 mmHg 50%

    Day after tomorrow, 20 August, Monday

    Time Temperature Precipitation Wind Pressure Humidity
    00:00 +23°C° 0.1 mm 2 mps 742 mmHg 49%
    01:00 +22°C° 0.1 mm 1 mps 742 mmHg 49%
    02:00 +22°C° 0.1 mm 1 mps 742 mmHg 48%
    03:00 +21°C° 0 mm 1 mps 742 mmHg 48%
    04:00 +21°C° 0 mm 1 mps 742 mmHg 48%
    05:00 +21°C° 0 mm 1 mps 742 mmHg 47%
    06:00 +22°C° 0 mm 1 mps 742 mmHg 45%
    07:00 +24°C° 0 mm 1 mps 742 mmHg 43%
    08:00 +26°C° 0 mm 2 mps 743 mmHg 41%
    09:00 +27°C° 0 mm 2 mps 743 mmHg 37%
    10:00 +29°C° 0 mm 2 mps 743 mmHg 33%
    11:00 +31°C° 0 mm 2 mps 743 mmHg 28%
    12:00 +31°C° 0 mm 2 mps 743 mmHg 28%
    13:00 +32°C° 0 mm 2 mps 742 mmHg 27%
    14:00 +32°C° 0 mm 2 mps 742 mmHg 26%
    15:00 +32°C° 0 mm 2 mps 742 mmHg 26%
    16:00 +32°C° 0 mm 2 mps 742 mmHg 27%
    17:00 +32°C° 0 mm 2 mps 741 mmHg 27%
    18:00 +30°C° 0 mm 2 mps 741 mmHg 29%
    19:00 +28°C° 0 mm 2 mps 741 mmHg 32%
    20:00 +26°C° 0 mm 2 mps 741 mmHg 34%
    21:00 +25°C° 0 mm 2 mps 741 mmHg 35%
    22:00 +24°C° 0 mm 2 mps 741 mmHg 36%
    23:00 +23°C° 0 mm 2 mps 741 mmHg 37%

    21 August, Tuesday

    Time Temperature Precipitation Wind Pressure Humidity
    00:00 +23°C° 0 mm 2 mps 741 mmHg 38%
    01:00 +21°C° 0 mm 2 mps 741 mmHg 40%
    02:00 +21°C° 0 mm 2 mps 741 mmHg 42%
    03:00 +20°C° 0 mm 2 mps 741 mmHg 44%
    04:00 +21°C° 0 mm 1 mps 741 mmHg 45%
    05:00 +21°C° 0 mm 1 mps 741 mmHg 47%
    06:00 +22°C° 0 mm 1 mps 741 mmHg 45%
    07:00 +24°C° 0 mm 1 mps 742 mmHg 43%
    08:00 +26°C° 0 mm 1 mps 742 mmHg 42%
    09:00 +28°C° 0 mm 2 mps 742 mmHg 38%
    10:00 +30°C° 0 mm 2 mps 742 mmHg 34%
    11:00 +31°C° 0 mm 2 mps 742 mmHg 31%
    12:00 +32°C° 0 mm 2 mps 742 mmHg 30%
    13:00 +32°C° 0 mm 2 mps 741 mmHg 29%
    14:00 +34°C° 0 mm 2 mps 741 mmHg 28%
    15:00 +34°C° 0 mm 2 mps 741 mmHg 28%
    16:00 +34°C° 0 mm 2 mps 741 mmHg 29%
    17:00 +34°C° 0 mm 2 mps 741 mmHg 29%
    18:00 +31°C° 0 mm 2 mps 741 mmHg 34%
    19:00 +29°C° 0 mm 2 mps 741 mmHg 39%
    20:00 +27°C° 0 mm 2 mps 741 mmHg 44%
    21:00 +26°C° 0 mm 2 mps 741 mmHg 47%
    22:00 +25°C° 0 mm 2 mps 741 mmHg 50%
    23:00 +24°C° 0 mm 2 mps 741 mmHg 52%

    22 August, Wednesday

    Time Temperature Precipitation Wind Pressure Humidity
    00:00 +24°C° 0.1 mm 2 mps 742 mmHg 58%
    01:00 +23°C° 0.1 mm 2 mps 742 mmHg 63%
    02:00 +21°C° 0.1 mm 2 mps 742 mmHg 69%
    03:00 +21°C° 0 mm 2 mps 742 mmHg 73%
    04:00 +20°C° 0 mm 3 mps 742 mmHg 78%
    05:00 +20°C° 0 mm 3 mps 742 mmHg 82%
    06:00 +21°C° 0 mm 3 mps 742 mmHg 77%
    07:00 +23°C° 0 mm 4 mps 743 mmHg 71%
    08:00 +25°C° 0 mm 4 mps 743 mmHg 66%
    09:00 +27°C° 0 mm 4 mps 743 mmHg 60%
    10:00 +28°C° 0 mm 4 mps 744 mmHg 53%
    11:00 +29°C° 0 mm 4 mps 744 mmHg 47%
    12:00 +30°C° 0 mm 4 mps 744 mmHg 45%
    13:00 +30°C° 0 mm 5 mps 744 mmHg 44%
    14:00 +30°C° 0 mm 5 mps 744 mmHg 42%
    15:00 +30°C° 0 mm 5 mps 744 mmHg 43%
    16:00 +29°C° 0 mm 5 mps 744 mmHg 44%
    17:00 +29°C° 0 mm 5 mps 744 mmHg 45%
    18:00 +27°C° 0 mm 5 mps 744 mmHg 50%
    19:00 +25°C° 0 mm 4 mps 744 mmHg 54%
    20:00 +23°C° 0 mm 4 mps 744 mmHg 59%
    21:00 +22°C° 0 mm 4 mps 744 mmHg 57%
    22:00 +21°C° 0 mm 4 mps 745 mmHg 56%
    23:00 +20°C° 0 mm 4 mps 745 mmHg 54%

    23 August, Thursday

    Time Temperature Precipitation Wind Pressure Humidity
    00:00 +20°C° 0 mm 4 mps 745 mmHg 55%
    01:00 +19°C° 0 mm 4 mps 745 mmHg 56%
    02:00 +18°C° 0 mm 4 mps 745 mmHg 56%
    03:00 +17°C° 0 mm 3 mps 745 mmHg 58%
    04:00 +17°C° 0 mm 3 mps 745 mmHg 59%
    05:00 +16°C° 0 mm 3 mps 745 mmHg 60%
    06:00 +17°C° 0 mm 3 mps 745 mmHg 58%
    07:00 +19°C° 0 mm 4 mps 745 mmHg 55%
    08:00 +20°C° 0 mm 4 mps 745 mmHg 52%
    09:00 +22°C° 0 mm 4 mps 745 mmHg 47%
    10:00 +25°C° 0 mm 4 mps 745 mmHg 42%
    11:00 +27°C° 0 mm 4 mps 745 mmHg 36%
    12:00 +27°C° 0 mm 4 mps 745 mmHg 34%
    13:00 +28°C° 0 mm 4 mps 745 mmHg 31%
    14:00 +29°C° 0 mm 4 mps 744 mmHg 29%
    15:00 +28°C° 0 mm 4 mps 744 mmHg 29%
    16:00 +28°C° 0 mm 4 mps 744 mmHg 29%
    17:00 +28°C° 0 mm 4 mps 744 mmHg 29%
    18:00 +26°C° 0 mm 4 mps 744 mmHg 34%
    19:00 +22°C° 0 mm 4 mps 744 mmHg 38%
    20:00 +20°C° 0 mm 4 mps 744 mmHg 42%
    21:00 +20°C° 0 mm 3 mps 744 mmHg 44%
    22:00 +19°C° 0 mm 3 mps 744 mmHg 45%
    23:00 +18°C° 0 mm 3 mps 744 mmHg 46%
    Show more